When you browse on this site, cookies collect data to enhance your experience and personalize the content and advertising you see.
Visit our Privacy Policy to learn more. By continuing to use the site, you agree to this use of cookies and data.
  • En España
  • Lista de países
  • Para 7 días
  • Temperatura del agua
  • El tiempo en el mapa
  • Informadores
  • user-avatar
    Iniciar sesión

    Tiempo cada hora Río Bueno

    Hoy, 30 Marzo, Lunes

    Tiempo Temperatura Precipitaciones Viento Presión Humedad
    00:00 +7°C° 0 mm 1 mps 763 mmHg 94%
    01:00 +7°C° 0 mm 1 mps 763 mmHg 96%
    02:00 +7°C° 0 mm 1 mps 763 mmHg 96%
    03:00 +6°C° 0 mm 1 mps 763 mmHg 96%
    04:00 +6°C° 0 mm 1 mps 762 mmHg 97%
    05:00 +7°C° 0 mm 1 mps 762 mmHg 96%
    06:00 +7°C° 0 mm 1 mps 762 mmHg 95%
    07:00 +7°C° 0 mm 1 mps 762 mmHg 94%
    08:00 +10°C° 0 mm 1 mps 762 mmHg 81%
    09:00 +13°C° 0 mm 2 mps 762 mmHg 69%
    10:00 +15°C° 0 mm 2 mps 762 mmHg 56%
    11:00 +17°C° 0 mm 2 mps 761 mmHg 50%
    12:00 +19°C° 0 mm 2 mps 761 mmHg 45%
    13:00 +20°C° 0 mm 3 mps 760 mmHg 39%
    14:00 +20°C° 0 mm 3 mps 760 mmHg 41%
    15:00 +20°C° 0 mm 3 mps 760 mmHg 42%
    16:00 +19°C° 0 mm 3 mps 760 mmHg 43%
    17:00 +17°C° 0 mm 2 mps 760 mmHg 52%
    18:00 +14°C° 0 mm 2 mps 760 mmHg 61%
    19:00 +12°C° 0 mm 1 mps 760 mmHg 70%
    20:00 +11°C° 0 mm 1 mps 760 mmHg 75%
    21:00 +10°C° 0 mm 1 mps 760 mmHg 79%
    22:00 +9°C° 0 mm 1 mps 760 mmHg 84%
    23:00 +9°C° 0 mm 1 mps 760 mmHg 86%

    Mañana, 31 Marzo, Martes

    Tiempo Temperatura Precipitaciones Viento Presión Humedad
    00:00 +8°C° 0 mm 1 mps 760 mmHg 88%
    01:00 +8°C° 0 mm 1 mps 759 mmHg 90%
    02:00 +8°C° 0 mm 1 mps 759 mmHg 92%
    03:00 +8°C° 0 mm 1 mps 759 mmHg 93%
    04:00 +8°C° 0 mm 1 mps 759 mmHg 95%
    05:00 +9°C° 0 mm 1 mps 759 mmHg 93%
    06:00 +9°C° 0 mm 1 mps 759 mmHg 90%
    07:00 +10°C° 0 mm 1 mps 759 mmHg 88%
    08:00 +11°C° 0 mm 1 mps 759 mmHg 83%
    09:00 +13°C° 0 mm 1 mps 759 mmHg 78%
    10:00 +14°C° 0 mm 1 mps 759 mmHg 73%
    11:00 +16°C° 0 mm 2 mps 759 mmHg 66%
    12:00 +18°C° 0 mm 2 mps 759 mmHg 59%
    13:00 +19°C° 0 mm 2 mps 759 mmHg 52%
    14:00 +19°C° 0 mm 2 mps 759 mmHg 51%
    15:00 +19°C° 0 mm 2 mps 759 mmHg 50%
    16:00 +19°C° 0 mm 2 mps 759 mmHg 50%
    17:00 +17°C° 0 mm 2 mps 760 mmHg 61%
    18:00 +14°C° 0 mm 2 mps 760 mmHg 72%
    19:00 +11°C° 0 mm 1 mps 761 mmHg 83%
    20:00 +10°C° 0 mm 1 mps 761 mmHg 88%
    21:00 +9°C° 0 mm 1 mps 762 mmHg 92%
    22:00 +9°C° 0 mm 1 mps 762 mmHg 97%
    23:00 +8°C° 0 mm 1 mps 762 mmHg 97%

    Pasado mañana, 1 Abril, Miércoles

    Tiempo Temperatura Precipitaciones Viento Presión Humedad
    00:00 +8°C° 0 mm 1 mps 762 mmHg 98%
    01:00 +7°C° 0 mm 0 mps 762 mmHg 98%
    02:00 +7°C° 0 mm 0 mps 763 mmHg 98%
    03:00 +7°C° 0 mm 0 mps 763 mmHg 98%
    04:00 +7°C° 0 mm 0 mps 763 mmHg 98%
    05:00 +7°C° 0 mm 0 mps 763 mmHg 97%
    06:00 +7°C° 0 mm 0 mps 764 mmHg 96%
    07:00 +8°C° 0 mm 0 mps 764 mmHg 95%
    08:00 +11°C° 0 mm 1 mps 764 mmHg 85%
    09:00 +13°C° 0 mm 1 mps 764 mmHg 75%
    10:00 +15°C° 0 mm 2 mps 764 mmHg 64%
    11:00 +17°C° 0 mm 2 mps 764 mmHg 58%
    12:00 +19°C° 0 mm 2 mps 764 mmHg 52%
    13:00 +20°C° 0 mm 2 mps 764 mmHg 46%
    14:00 +20°C° 0 mm 3 mps 764 mmHg 47%
    15:00 +20°C° 0 mm 3 mps 764 mmHg 48%
    16:00 +20°C° 0 mm 3 mps 764 mmHg 49%
    17:00 +17°C° 0 mm 2 mps 764 mmHg 59%
    18:00 +15°C° 0 mm 2 mps 764 mmHg 69%
    19:00 +12°C° 0 mm 1 mps 765 mmHg 80%
    20:00 +12°C° 0 mm 1 mps 765 mmHg 85%
    21:00 +11°C° 0 mm 1 mps 765 mmHg 90%
    22:00 +10°C° 0 mm 1 mps 765 mmHg 95%
    23:00 +9°C° 0 mm 1 mps 765 mmHg 96%

    2 Abril, Jueves

    Tiempo Temperatura Precipitaciones Viento Presión Humedad
    00:00 +9°C° 0 mm 1 mps 765 mmHg 97%
    01:00 +9°C° 0 mm 1 mps 765 mmHg 98%
    02:00 +9°C° 0 mm 1 mps 764 mmHg 98%
    03:00 +8°C° 0 mm 1 mps 764 mmHg 98%
    04:00 +8°C° 0 mm 1 mps 764 mmHg 98%
    05:00 +9°C° 0 mm 1 mps 764 mmHg 98%
    06:00 +9°C° 0 mm 1 mps 764 mmHg 97%
    07:00 +9°C° 0 mm 1 mps 764 mmHg 96%
    08:00 +12°C° 0 mm 1 mps 763 mmHg 86%
    09:00 +14°C° 0 mm 2 mps 763 mmHg 75%
    10:00 +16°C° 0 mm 2 mps 762 mmHg 64%
    11:00 +18°C° 0 mm 2 mps 762 mmHg 57%
    12:00 +20°C° 0 mm 3 mps 761 mmHg 51%
    13:00 +22°C° 0 mm 3 mps 761 mmHg 44%
    14:00 +21°C° 0 mm 3 mps 760 mmHg 45%
    15:00 +21°C° 0 mm 3 mps 760 mmHg 46%
    16:00 +20°C° 0 mm 3 mps 760 mmHg 47%
    17:00 +18°C° 0 mm 3 mps 760 mmHg 56%
    18:00 +15°C° 0 mm 2 mps 760 mmHg 66%
    19:00 +13°C° 0 mm 2 mps 760 mmHg 75%
    20:00 +12°C° 0 mm 1 mps 760 mmHg 82%
    21:00 +11°C° 0 mm 1 mps 760 mmHg 89%
    22:00 +10°C° 0 mm 1 mps 760 mmHg 96%
    23:00 +10°C° 0 mm 1 mps 760 mmHg 96%

    3 Abril, Viernes

    Tiempo Temperatura Precipitaciones Viento Presión Humedad
    00:00 +9°C° 0 mm 1 mps 759 mmHg 97%
    01:00 +9°C° 0 mm 1 mps 759 mmHg 98%
    02:00 +9°C° 0 mm 1 mps 759 mmHg 98%
    03:00 +8°C° 0 mm 1 mps 758 mmHg 98%
    04:00 +7°C° 0 mm 0 mps 758 mmHg 98%
    05:00 +7°C° 0 mm 0 mps 758 mmHg 98%
    06:00 +8°C° 0 mm 0 mps 758 mmHg 97%
    07:00 +8°C° 0 mm 0 mps 758 mmHg 96%
    08:00 +11°C° 0 mm 0 mps 758 mmHg 84%
    09:00 +13°C° 0 mm 0 mps 758 mmHg 72%
    10:00 +16°C° 0 mm 0 mps 757 mmHg 60%
    11:00 +18°C° 0 mm 0 mps 757 mmHg 53%
    12:00 +20°C° 0 mm 0 mps 757 mmHg 47%
    13:00 +24°C° 0 mm 1 mps 756 mmHg 40%
    14:00 +23°C° 0 mm 1 mps 756 mmHg 45%
    15:00 +22°C° 0 mm 1 mps 756 mmHg 51%
    16:00 +21°C° 0 mm 1 mps 756 mmHg 56%
    17:00 +19°C° 0 mm 1 mps 756 mmHg 66%
    18:00 +18°C° 0 mm 1 mps 756 mmHg 76%
    19:00 +14°C° 0 mm 0 mps 756 mmHg 86%
    20:00 +14°C° 0.1 mm 1 mps 757 mmHg 87%
    21:00 +14°C° 0.1 mm 2 mps 757 mmHg 87%
    22:00 +13°C° 0.1 mm 2 mps 758 mmHg 88%
    23:00 +12°C° 0 mm 2 mps 758 mmHg 89%

    4 Abril, Sábado

    Tiempo Temperatura Precipitaciones Viento Presión Humedad
    00:00 +12°C° 0 mm 2 mps 758 mmHg 89%
    01:00 +10°C° 0 mm 2 mps 759 mmHg 90%
    02:00 +9°C° 0 mm 2 mps 759 mmHg 91%
    03:00 +8°C° 0 mm 1 mps 759 mmHg 93%
    04:00 +7°C° 0 mm 1 mps 759 mmHg 95%
    05:00 +7°C° 0 mm 1 mps 759 mmHg 94%
    06:00 +7°C° 0 mm 1 mps 760 mmHg 93%
    07:00 +7°C° 0 mm 1 mps 760 mmHg 91%
    08:00 +9°C° 0 mm 1 mps 760 mmHg 79%
    09:00 +12°C° 0 mm 2 mps 760 mmHg 67%
    10:00 +14°C° 0 mm 2 mps 760 mmHg 55%
    11:00 +15°C° 0 mm 2 mps 759 mmHg 51%
    12:00 +16°C° 0 mm 2 mps 759 mmHg 46%
    13:00 +18°C° 0 mm 3 mps 758 mmHg 42%
    14:00 +17°C° 0 mm 3 mps 758 mmHg 44%
    15:00 +17°C° 0 mm 3 mps 758 mmHg 45%
    16:00 +17°C° 0 mm 3 mps 758 mmHg 47%
    17:00 +15°C° 0 mm 2 mps 758 mmHg 58%
    18:00 +12°C° 0 mm 2 mps 758 mmHg 68%
    19:00 +10°C° 0 mm 1 mps 759 mmHg 78%
    20:00 +9°C° 0 mm 1 mps 759 mmHg 83%
    21:00 +8°C° 0 mm 1 mps 759 mmHg 89%
    22:00 +7°C° 0 mm 1 mps 760 mmHg 94%
    23:00 +6°C° 0 mm 0 mps 760 mmHg 95%
    Mostrar más